Home > Weather > Peshawar > Past weeks

Flag for Pakistan Weather for the Past 2 Weeks in Peshawar, Pakistan

Now
79 °F

Clear.


Feels Like: 79 °F
Forecast: 57 / 96 °F
Wind: 7 mph from Southwest

Location: Peshawar Airport

Current Time: Apr 29, 2016 at 1:00:50 AM

Latest Report: Apr 29, 2016 at 12:00 AM


Visibility: 2 mi

Pressure: 29.77 "Hg

Humidity: 37%

Dew Point: 50 °F

Location of PeshawarLocation

Historic Weather in Peshawar — Graph

°F

Peshawar Temperature Yesterday

Maximum temperature yesterday: 97 °F (at 4:00 PM)
Minimum temperature yesterday: 68 °F (at 5:00 AM)
Average temperature yesterday: 81 °F

High & Low Weather Summary for the Past Weeks

 TemperatureHumidityPressure
High97 °F (Apr 28, 4:00 PM)88% (Apr 18, 3:00 AM)29.98 "Hg (Apr 18, 3:00 AM)
Low61 °F (Apr 22, 5:00 AM)24% (Apr 23, 3:30 PM)29.62 "Hg (Apr 21, 5:00 PM)
Average78 °F47%29.80 "Hg
* Reported Apr 13 11:00 PM — Apr 28 11:00 PM, Peshawar, Weather by CustomWeather, © 2016

Note: Actual official high and low records may vary slightly from our data, if they occured in-between our weather recording intervals... More about our weather records

Advertising

Peshawar Weather History for the Previous 24 Hours

Scroll right to see more
 ConditionsComfort  
Time TempWeatherWind HumidityBarometerVisibility
11:00 PM
Thu, Apr 28
79 °FClear.7 mph37%29.77 "Hg2 mi
10:00 PM81 °FClear.7 mph34%29.77 "Hg2 mi
9:00 PM82 °FClear.7 mph32%29.77 "Hg2 mi
8:00 PM86 °FClear.7 mph31%29.77 "Hg2 mi
7:00 PM86 °FClear.5 mph35%29.77 "Hg2 mi
6:00 PM93 °FHaze.9 mph30%29.74 "Hg3 mi
5:00 PM95 °FPassing clouds.7 mph28%29.74 "Hg5 mi
4:00 PM97 °FHaze.7 mph25%29.74 "Hg5 mi
3:00 PM95 °FHaze.7 mph28%29.77 "Hg5 mi
2:00 PM95 °FHaze.9 mph28%29.80 "Hg5 mi
1:30 PM91 °FHaze.7 mph32%29.80 "Hg5 mi
1:00 PM91 °FHaze.7 mph32%29.80 "Hg3 mi
12:30 PM90 °FHaze.7 mph31%29.83 "Hg3 mi
11:00 AM88 °FSunny.7 mph33%29.83 "Hg3 mi
10:00 AM84 °FSunny.5 mph35%29.83 "Hg3 mi
9:00 AM81 °FSunny.5 mph37%29.83 "Hg2 mi
8:30 AM75 °FSunny.5 mph50%29.83 "Hg2 mi
8:00 AM75 °FSunny.5 mph50%29.83 "Hg2 mi
7:00 AM70 °FSunny.5 mph53%29.83 "Hg2 mi
6:00 AM68 °FHaze.5 mph56%29.83 "Hg2 mi
5:30 AM68 °FSunny.5 mph56%29.83 "Hg2 mi
5:00 AM68 °FClear.5 mph56%29.83 "Hg2 mi
4:30 AM70 °FClear.5 mph53%29.80 "Hg2 mi
4:00 AM70 °FClear.5 mph53%29.80 "Hg2 mi
3:30 AM72 °FClear.No wind50%29.80 "Hg2 mi
3:00 AM72 °FClear.No wind50%29.80 "Hg2 mi
1:30 AM75 °FHaze.5 mph47%29.83 "Hg2 mi
1:00 AM75 °FHaze.5 mph47%29.83 "Hg2 mi
Weather by CustomWeather, © 2016

See weather overviewHow to use our weather pages